GW4813 Weather Reports


time (UTC)temp
F
wind
direction
speed
knots
gust
knots
rain 1hr
in
rain 24hr
in
rain mn
in
humidity
%
barometer
mb
20260903024512 78 150 0.0 0.9 0.00 0.00 0.00 84 1017.1
20260903023004 79 178 0.0 0.0 0.00 0.00 0.00 84 1017.1
20260903021524 79 178 0.0 0.0 0.00 0.00 0.00 83 1017.1
20260903020009 79 179 0.0 0.0 0.00 0.00 0.00 82 1017.1
20260903014512 80 186 0.0 0.0 0.00 0.00 0.00 81 1017.1
20260903013015 81 195 0.0 0.0 0.00 0.00 0.00 79 1016.9
20260903011504 82 240 0.0 0.0 0.00 0.00 0.00 78 1016.8
20260903010007 82 245 0.0 0.0 0.00 0.00 0.00 77 1016.6
20260903004517 82 245 0.0 0.0 0.00 0.00 0.00 76 1016.7
20260903003020 83 245 0.0 0.0 0.00 0.00 0.00 74 1016.6
20260903001516 84 245 0.0 0.9 0.00 0.00 0.00 71 1016.5
20260903000005 86 244 0.0 3.5 0.00 0.00 0.00 69 1016.5
20260902234507 87 265 2.6 6.1 0.00 0.00 0.00 66 1016.4
20260902233022 88 241 2.6 6.1 0.00 0.00 0.00 64 1016.4
20260902231525 89 231 3.5 7.0 0.00 0.00 0.00 63 1016.4
20260902230018 90 266 3.5 6.1 0.00 0.00 0.00 60 1016.5
20260902224507 91 271 3.5 6.1 0.00 0.00 0.00 59 1016.4
20260902223012 91 254 4.3 7.8 0.00 0.00 0.00 58 1016.5
20260902221517 92 284 3.5 7.8 0.00 0.00 0.00 60 1016.4
20260902220026 92 226 3.5 7.8 0.00 0.00 0.00 59 1016.6
20260902214520 92 286 4.3 9.6 0.00 0.00 0.00 58 1016.6
20260902213009 92 248 3.5 7.8 0.00 0.00 0.00 58 1016.6
20260902211511 92 310 4.3 9.6 0.00 0.00 0.00 58 1016.7
20260902210022 93 234 6.1 9.6 0.00 0.00 0.00 57 1016.8
20260902204523 93 252 3.5 8.7 0.00 0.00 0.00 57 1017.0
20260902203027 93 271 3.5 8.7 0.00 0.00 0.00 57 1017.1
20260902201531 93 261 5.2 9.6 0.00 0.00 0.00 55 1017.3
20260902200019 93 272 5.2 8.7 0.00 0.00 0.00 54 1017.4
20260902194526 93 153 5.2 9.6 0.00 0.00 0.00 54 1017.6
20260902193005 93 267 4.3 9.6 0.00 0.00 0.00 53 1017.6
20260902191511 93 223 2.6 10.4 0.00 0.00 0.00 56 1017.6
20260902190010 93 171 4.3 10.4 0.00 0.00 0.00 55 1017.9
20260902184516 93 4 4.3 10.4 0.00 0.00 0.00 55 1018.0
20260902183004 92 258 4.3 7.8 0.00 0.00 0.00 59 1018.2
20260902181504 89 262 3.5 7.0 0.00 0.00 0.00 63 1018.2
20260902180008 90 272 3.5 8.7 0.00 0.00 0.00 60 1018.3
20260902174511 92 269 2.6 7.0 0.00 0.00 0.00 61 1018.4
20260902173020 92 264 4.3 7.8 0.00 0.00 0.00 63 1018.6
20260902171504 91 260 4.3 7.8 0.00 0.00 0.00 61 1018.9
20260902170006 91 246 4.3 9.6 0.00 0.00 0.00 59 1018.9
20260902164512 91 263 2.6 7.8 0.00 0.00 0.00 63 1019.0
20260902163015 91 219 3.5 6.1 0.00 0.00 0.00 61 1019.1
20260902161521 90 236 2.6 6.1 0.00 0.00 0.00 61 1019.0
20260902160036 90 184 2.6 6.1 0.00 0.00 0.00 64 1019.1
20260902154507 89 290 1.7 6.1 0.00 0.00 0.00 65 1019.2
20260902153009 88 249 3.5 6.1 0.00 0.00 0.00 66 1019.2
20260902151517 87 284 2.6 6.1 0.00 0.00 0.00 66 1019.2
20260902150023 86 278 2.6 6.1 0.00 0.00 0.00 69 1019.3
20260902144528 85 271 3.5 7.0 0.00 0.00 0.00 70 1019.4
20260902143009 85 243 2.6 6.1 0.00 0.00 0.00 72 1019.3
20260902141515 84 239 2.6 5.2 0.00 0.00 0.00 75 1019.3
20260902140019 83 245 2.6 5.2 0.00 0.00 0.00 76 1019.3
20260902134528 82 238 1.7 6.1 0.00 0.00 0.00 78 1019.3
20260902133027 81 214 2.6 6.1 0.00 0.00 0.00 80 1019.4
20260902131511 80 287 0.9 3.5 0.00 0.00 0.00 82 1019.4
20260902130014 79 264 1.7 4.3 0.00 0.00 0.00 83 1019.3
20260902124523 77 216 0.0 0.0 0.00 0.00 0.00 87 1019.3
20260902123026 75 233 0.0 0.0 0.00 0.00 0.00 89 1019.1
20260902121528 74 262 0.0 0.0 0.00 0.00 0.00 90 1019.1
20260902120010 73 280 0.0 0.0 0.00 0.00 0.00 91 1018.9
20260902114531 72 103 0.0 0.0 0.00 0.00 0.00 92 1018.8
20260902113028 72 103 0.0 0.0 0.00 0.00 0.00 93 1018.6
20260902111529 71 103 0.0 0.0 0.00 0.00 0.00 92 1018.5
20260902110031 71 118 0.0 0.0 0.00 0.00 0.00 93 1018.5
20260902104514 71 118 0.0 0.0 0.00 0.00 0.00 93 1018.5
20260902103008 71 118 0.0 0.0 0.00 0.00 0.00 94 1018.3
20260902101503 71 136 0.0 0.0 0.00 0.00 0.00 94 1018.4
20260902100008 71 136 0.0 0.0 0.00 0.00 0.00 94 1018.4
20260902094512 71 136 0.0 0.0 0.00 0.00 0.00 94 1018.4
20260902093024 71 136 0.0 0.0 0.00 0.00 0.00 94 1018.4
20260902091526 71 136 0.0 0.0 0.00 0.00 0.00 94 1018.3
20260902090005 71 139 0.0 0.0 0.00 0.00 0.00 93 1018.3
20260902084515 72 138 0.0 0.0 0.00 0.00 0.00 93 1018.2
20260902083019 72 138 0.0 0.0 0.00 0.00 0.00 92 1018.2
20260902081523 72 139 0.0 0.0 0.00 0.00 0.00 91 1018.0
20260902080027 73 139 0.0 0.0 0.00 0.00 0.00 90 1017.9
20260902074512 74 139 0.0 0.0 0.00 0.00 0.00 89 1017.8
20260902073011 75 264 0.0 0.0 0.00 0.00 0.00 88 1017.8
20260902071519 76 264 0.0 0.0 0.00 0.00 0.00 86 1017.8
20260902070023 76 263 0.0 0.0 0.00 0.00 0.00 86 1017.8
20260902064530 75 252 0.0 0.0 0.00 0.00 0.00 87 1017.7
20260902063010 75 280 0.0 0.0 0.00 0.00 0.00 88 1017.7
20260902061521 74 231 0.0 0.9 0.00 0.00 0.00 90 1017.8
20260902060018 74 110 0.0 0.0 0.00 0.00 0.00 90 1017.8
20260902054536 74 110 0.0 0.0 0.00 0.00 0.00 91 1017.8
20260902053028 74 110 0.0 0.0 0.00 0.00 0.00 91 1017.8
20260902051512 74 110 0.0 0.0 0.00 0.00 0.00 91 1017.7
20260902050032 75 110 0.0 0.0 0.00 0.00 0.00 88 1017.7
20260902044523 75 110 0.0 0.0 0.00 0.00 0.00 89 1017.8
20260902043028 75 111 0.0 0.0 0.00 0.00 0.00 90 1017.9
20260902041531 75 117 0.0 0.0 0.00 0.00 0.00 88 1017.9
20260902040014 76 117 0.0 0.0 0.00 0.00 0.00 88 1017.9
20260902034518 76 117 0.0 0.0 0.00 0.00 0.00 88 1017.8
20260902033025 76 117 0.0 0.0 0.00 0.00 0.00 88 1017.8
20260902031531 76 117 0.0 0.0 0.00 0.00 0.00 88 1017.9
20260902030009 77 117 0.0 0.0 0.00 0.00 0.00 88 1017.8